Burlington, WA
on Sunday, January 13, 2013

Sunday
Previous Day Next Day
Daily Summary
 ActualAverage (KBLI)Record (KBLI)
Temperature
Mean Temperature °F 39°F  
Max Temperature 33°F 45°F 64°F (1968)
Min Temperature 26°F 33°F 15°F (2007)
Degree Days
Heating Degree Days 36 26  
Month to date heating degree days 344  
Cooling Degree Days 0 0  
Month to date cooling degree days 0  
Year to date cooling degree days 0  
Moisture
Dew Point 28°F   
Average Humidity 94    
Maximum Humidity 100    
Minimum Humidity 75    
Precipitation
Precipitation 0.00 in 0.16 in 1.21 in (1996)
Month to date precipitation 1.98  
Year to date precipitation 1.98  
Wind
Wind Speed 4 mph   
Max Wind Speed 7 mph   
Max Gust Speed mph   
Visibility 9 miles   
Events     

Key: T is trace of precipitation, MM is missing value
Source: NWS Daily Summary
Time(PST)TemperatureDew PointHumidity Pressure Visibility Wind DirectionWind SpeedGust SpeedPrecipitationEvents Conditions
12:15 AM 28.4°F 26.6°F 93% 30.46 in 10.0 miles Calm Calm - 0.00 in   Clear
12:35 AM 28.4°F 26.6°F 93% 30.47 in 10.0 miles NE 4.6 mph - 0.00 in   Clear
1:15 AM 26.6°F 26.6°F 100% 30.46 in 10.0 miles NE 5.8 mph - 0.00 in   Clear
1:35 AM 26.6°F 26.6°F 100% 30.46 in 10.0 miles NE 3.5 mph - 0.00 in   Clear
1:55 AM 26.6°F 26.6°F 100% 30.47 in 10.0 miles Calm Calm - 0.00 in   Clear
2:15 AM 26.6°F 26.6°F 100% 30.47 in 10.0 miles NE 4.6 mph - 0.00 in   Clear
2:35 AM 26.6°F 26.6°F 100% 30.48 in 10.0 miles NE 5.8 mph - 0.00 in   Clear
2:55 AM 26.6°F 26.6°F 100% 30.47 in 10.0 miles NE 5.8 mph - 0.00 in   Clear
3:15 AM 26.6°F 26.6°F 100% 30.47 in 10.0 miles NE 4.6 mph - 0.00 in   Clear
3:35 AM 26.6°F 26.6°F 100% 30.47 in 10.0 miles NE 4.6 mph - 0.00 in   Clear
4:15 AM 26.6°F 26.6°F 100% 30.46 in 10.0 miles NE 5.8 mph - 0.00 in   Clear
4:35 AM 26.6°F 26.6°F 100% 30.47 in 10.0 miles NE 4.6 mph - 0.00 in   Clear
4:55 AM 26.6°F 26.6°F 100% 30.46 in 10.0 miles NE 6.9 mph - 0.00 in   Clear
5:15 AM 26.6°F 26.6°F 100% 30.47 in 10.0 miles NNE 4.6 mph - 0.00 in   Clear
5:35 AM 26.6°F 26.6°F 100% 30.46 in 10.0 miles NE 6.9 mph - 0.00 in   Clear
5:55 AM 26.6°F 26.6°F 100% 30.47 in 10.0 miles NE 6.9 mph - 0.00 in   Clear
6:15 AM 26.6°F 26.6°F 100% 30.47 in 10.0 miles NE 6.9 mph - 0.00 in   Clear
6:35 AM 26.6°F 26.6°F 100% 30.47 in 10.0 miles NE 6.9 mph - 0.00 in   Clear
6:55 AM 26.6°F 24.8°F 93% 30.48 in 10.0 miles ENE 6.9 mph - 0.00 in   Clear
7:15 AM 26.6°F 24.8°F 93% 30.49 in 10.0 miles NE 6.9 mph - 0.00 in   Clear
7:35 AM 26.6°F 24.8°F 93% 30.49 in 10.0 miles NE 5.8 mph - 0.00 in   Clear
8:15 AM 26.6°F 24.8°F 93% 30.49 in 9.0 miles NE 5.8 mph - 0.00 in   Clear
8:35 AM 26.6°F 24.8°F 93% 30.49 in 9.0 miles NE 6.9 mph - 0.00 in   Clear
8:55 AM 26.6°F 26.6°F 100% 30.50 in 9.0 miles NE 5.8 mph - 0.00 in   Clear
9:15 AM 28.4°F 26.6°F 93% 30.50 in 9.0 miles NE 5.8 mph - 0.00 in   Clear
9:35 AM 28.4°F 26.6°F 93% 30.51 in 9.0 miles NE 6.9 mph - 0.00 in   Clear
10:15 AM 30.2°F 26.6°F 86% 30.50 in 9.0 miles ENE 6.9 mph - 0.00 in   Clear
10:35 AM 30.2°F 28.4°F 93% 30.50 in 9.0 miles ENE 6.9 mph - 0.00 in   Clear
10:55 AM 32.0°F 28.4°F 87% 30.49 in 8.0 miles ENE 4.6 mph - 0.00 in   Clear
11:15 AM 32.0°F 28.4°F 87% 30.48 in 8.0 miles ENE 5.8 mph - 0.00 in   Clear
11:35 AM 32.0°F 28.4°F 87% 30.48 in 8.0 miles ENE 4.6 mph - 0.00 in   Clear
12:15 PM 33.8°F 26.6°F 75% 30.49 in 8.0 miles East 3.5 mph - 0.00 in   Clear
12:35 PM 33.8°F 26.6°F 75% 30.47 in 7.0 miles Calm Calm - 0.00 in   Clear
12:55 PM 33.8°F 26.6°F 75% 30.46 in 8.0 miles Calm Calm - 0.00 in   Clear
1:15 PM 33.8°F 28.4°F 81% 30.46 in 8.0 miles Calm Calm - 0.00 in   Clear
1:35 PM 33.8°F 30.2°F 87% 30.47 in 8.0 miles South 4.6 mph - 0.00 in   Clear
2:15 PM 33.8°F 30.2°F 87% 30.47 in 8.0 miles Calm Calm - 0.00 in   Clear
2:35 PM 33.8°F 30.2°F 87% 30.46 in 8.0 miles South 3.5 mph - 0.00 in   Clear
2:55 PM 33.8°F 30.2°F 87% 30.47 in 7.0 miles South 3.5 mph - 0.00 in   Clear
3:15 PM 33.8°F 30.2°F 87% 30.46 in 8.0 miles SSE 3.5 mph - 0.00 in   Clear
3:35 PM 33.8°F 30.2°F 87% 30.47 in 7.0 miles Calm Calm - 0.00 in   Clear
3:55 PM 33.8°F 30.2°F 87% 30.48 in 8.0 miles Calm Calm - 0.00 in   Clear
4:15 PM 32.0°F 30.2°F 93% 30.47 in 8.0 miles Calm Calm - 0.00 in   Clear
4:35 PM 32.0°F 32.0°F 100% 30.47 in 8.0 miles Calm Calm - 0.00 in   Partly Cloudy
4:55 PM 32.0°F 28.4°F 87% 30.48 in 8.0 miles Calm Calm - 0.00 in   Mostly Cloudy
5:15 PM 32.0°F 30.2°F 93% 30.47 in 10.0 miles Calm Calm - 0.00 in   Overcast
5:55 PM 32.0°F 30.2°F 93% 30.48 in 9.0 miles Calm Calm - 0.00 in   Overcast
6:15 PM 32.0°F 30.2°F 93% 30.47 in 10.0 miles Calm Calm - 0.00 in   Overcast
6:35 PM 32.0°F 30.2°F 93% 30.46 in 10.0 miles SSE 3.5 mph - 0.00 in   Overcast
7:15 PM 32.0°F 30.2°F 93% 30.48 in 9.0 miles ESE 3.5 mph - 0.00 in   Overcast
7:55 PM 32.0°F 32.0°F 100% 30.48 in 9.0 miles Calm Calm - 0.00 in   Overcast
8:15 PM 32.0°F 32.0°F 100% 30.50 in 9.0 miles Calm Calm - 0.00 in   Overcast
8:35 PM 32.0°F 32.0°F 100% 30.49 in 10.0 miles Calm Calm - 0.00 in   Overcast
8:55 PM 32.0°F 32.0°F 100% 30.49 in 9.0 miles NE 3.5 mph - 0.00 in   Overcast
9:15 PM 32.0°F 32.0°F 100% 30.50 in 8.0 miles ENE 4.6 mph - 0.00 in   Overcast
9:35 PM 32.0°F 32.0°F 100% 30.49 in 8.0 miles ENE 4.6 mph - 0.00 in   Overcast
9:55 PM 32.0°F 30.2°F 93% 30.49 in 8.0 miles East 5.8 mph - 0.00 in   Overcast
10:15 PM 32.0°F 32.0°F 100% 30.51 in 8.0 miles Calm Calm - 0.00 in   Overcast
10:35 PM 32.0°F 30.2°F 93% 30.50 in 9.0 miles Calm Calm - 0.00 in   Overcast
11:15 PM 32.0°F 30.2°F 93% 30.50 in 9.0 miles Calm Calm - 0.00 in   Overcast
11:35 PM 32.0°F 30.2°F 93% 30.49 in 9.0 miles ENE 5.8 mph - 0.00 in   Mostly Cloudy
11:55 PM 32.0°F 30.2°F 93% 30.49 in 8.0 miles Calm Calm - 0.00 in   Scattered Clouds
Moon Phase
Jan. 13 Jan. 18 Jan. 26 Feb. 03 Feb. 10
Sunrise:07:57 AM (PST) Moon Rise:08:44 AM (PST)1/13
Sunset:04:40 PM (PST) Moon Set:07:41 PM (PST)1/13

Copyright © 2014 The Weather Underground, Inc.